Location: *
(58.4167°N, 22.5000°E)
Time: 02:56:31
(UTC+00:00)

USA 234 - Pass Details

Date: 22 September 2019
Orbit: 1103 x 1105 km, 123.0° (Epoch: 06 October)

Event Time Altitude Azimuth Distance (km) Brightness Sun altitude
Exits shadow 19:02:36 25° 92° (E) 2,074 4.2 -19.5°
Maximum altitude 19:06:45 81° 177° (S) 1,122 3.2 -19.9°
Drops below altitude 10° 19:13:20 10° 266° (W) 2,966 6.2 -20.6°
Sets 19:15:49 0° 267° (W) 3,924 6.9 -20.9°
